Flag for Hungary Weather past 2 weeks in Szeged, Hungary

Now
50 °F

Light rain. Overcast.


Feels Like: 50 °F
Forecast: 45 / 73 °F
Wind: No wind

Location: Szeged

Current Time: May 28, 2015 at 2:25:17 AM

Latest Report: May 28, 2015 at 1:00 AM


Visibility: 9 mi

Pressure: 30.05 "Hg

Humidity: 93%

Dew point: 48 °F

Location of SzegedLocation

Historic Weather in Szeged — Graph

°F

Szeged temperature yesterday

Maximum temperature yesterday: 58 °F (at 12:00 AM)
Minimum temperature yesterday: 51 °F (at 10:00 PM)
Average temperature yesterday: 55 °F

Past Weeks' High & Low Weather Summary

 TemperatureHumidityPressure
High87 °F (May 19, 6:00 PM)97% (May 22, 8:00 AM)30.16 "Hg (May 22, 8:00 AM)
Low48 °F (May 18, 4:00 AM)28% (May 19, 5:00 PM)29.70 "Hg (May 26, 6:00 PM)
Average62 °F75%29.92 "Hg
* Reported May 13 1:00 AM — May 28 1:00 AM, Szeged, Weather by CustomWeather, © 2015

Note: Actual official high and low records may vary slightly from our data, if they occured in-between our weather recording intervals... More about our weather records

Advertising

Szeged weather history for previous 24 hours

 ConditionsComfort  
Time TempWeatherWind HumidityBarometerVisibility
1:00 AM
Thu, May 28
50 °FLight rain. Overcast.No wind93%30.05 "Hg9 mi
12:00 AM50 °FLight rain. Overcast.No wind90%30.04 "Hg12 mi
11:00 PM
Wed, May 27
51 °FLight rain. Overcast.2 mph86%30.04 "Hg12 mi
10:00 PM51 °FLight rain. Overcast.1 mph89%30.03 "Hg12 mi
9:00 PM53 °FOvercast.2 mph89%30.01 "Hg12 mi
8:00 PM53 °FOvercast.2 mph89%30.00 "Hg12 mi
7:00 PM54 °FOvercast.2 mph86%29.99 "Hg16 mi
6:00 PM54 °FOvercast.2 mph86%29.98 "Hg16 mi
5:00 PM54 °FOvercast.2 mph84%29.97 "Hg16 mi
4:00 PM54 °FOvercast.2 mph86%29.95 "Hg16 mi
3:00 PM54 °FOvercast.3 mph89%29.94 "Hg12 mi
2:00 PM57 °FOvercast.5 mph75%29.93 "Hg12 mi
1:00 PM56 °FLight rain. Overcast.3 mph83%29.93 "Hg12 mi
12:00 PM54 °FLight rain. Overcast.5 mph90%29.93 "Hg7 mi
11:00 AM52 °FLight rain. Low clouds.6 mph92%29.91 "Hg3 mi
10:00 AM55 °FLight rain. Low clouds.9 mph83%29.88 "Hg12 mi
9:00 AM54 °FLight rain. Low clouds.7 mph90%29.86 "Hg7 mi
8:00 AM53 °FLight rain. Overcast.8 mph92%29.85 "Hg6 mi
7:00 AM53 °FLight rain. Overcast.7 mph93%29.83 "Hg5 mi
6:00 AM54 °FLight rain. Overcast.7 mph94%29.80 "Hg4 mi
5:00 AM54 °FLight rain. Overcast.7 mph92%29.78 "Hg12 mi
4:00 AM56 °FOvercast.7 mph90%29.77 "Hg16 mi
3:00 AM57 °FOvercast.8 mph88%29.76 "Hg12 mi
2:00 AM58 °FOvercast.6 mph88%29.75 "Hg16 mi
Weather by CustomWeather, © 2015

See weather overviewHow to use our weather pages